Change the Weather History Date:

Wednesday, April 10, 2013

  Actual Average Record
Temperature  
Mean Temperature 46 °F -  
Max Temperature 50 °F - 71 °F (1955)
Min Temperature 41 °F - 15 °F (1975)
Degree Days  
Heating Degree Days 19    
Month to date heating degree days 255  
Since 1 July heating degree days 6178  
Cooling Degree Days 0    
Month to date cooling degree days 0  
Year to date cooling degree days 0  
Moisture  
Dew Point 43 °F    
Average Humidity 87    
Maximum Humidity 100    
Minimum Humidity 74    
Precipitation  
Precipitation 0.50 in - 1.09 in (1980)
Month to date precipitation 0.74  
Year to date precipitation 3.36  
Sea Level Pressure  
Sea Level Pressure 29.94 in    
Wind  
Wind Speed 3 mph (North)    
Max Wind Speed 9 mph    
Max Gust Speed -    
Visibility 6 miles    
Events      
T = Trace of Precipitation, MM = Missing Value Source: NWS Daily Summary

Daily Weather History Graph

Daily Weather History Graph

Search for Another Location

Airport or City:

Trip Planner

Search our weather history database for the weather conditions in past years. The results will help you decide how hot, cold, wet, or windy it might be!

Date:

Astronomy

Apr. 10, 2013 Rise Set
Actual Time 6:17 AM EDT 7:29 PM EDT
Civil Twilight 5:47 AM EDT 7:58 PM EDT
Nautical Twilight 5:12 AM EDT 8:34 PM EDT
Astronomical Twilight 4:35 AM EDT 9:11 PM EDT
Moon 6:10 AM EDT (4/10) 8:04 PM EDT (4/10)
Length of Visible Light 14h 11m
Length of Day
13h 12m
New Moon, 0% of the Moon is Illuminated
Apr 10
New Moon
Apr 18
First Quarter
Apr 25
Full
May 2
Last Quarter
May 9
New

Hourly Weather History & Observations

Time (EDT) Temp. Windchill Dew Point Humidity Pressure Visibility Wind Dir Wind Speed Gust Speed Precip Events Conditions
12:15 AM 44.6 °F - 39.2 °F 81% 29.94 in 10.0 mi Calm Calm - N/A   Overcast
12:35 AM 44.6 °F 42.2 °F 39.2 °F 81% 29.96 in 9.0 mi ESE 4.6 mph - 0.02 in   Overcast
12:55 AM 42.8 °F 40.1 °F 41.0 °F 93% 29.97 in 7.0 mi East 4.6 mph - 0.08 in   Overcast
1:15 AM 42.8 °F 40.1 °F 41.0 °F 93% 29.96 in 8.0 mi SE 4.6 mph - 0.06 in   Overcast
1:35 AM 42.8 °F 40.1 °F 42.8 °F 100% 29.99 in 10.0 mi SSW 4.6 mph - 0.10 in   Overcast
1:55 AM 42.8 °F 41.1 °F 42.8 °F 100% 30.00 in 5.0 mi SE 3.5 mph - 0.19 in   Overcast
2:15 AM 42.8 °F 38.0 °F 41.0 °F 93% 29.95 in 9.0 mi ESE 8.1 mph - 0.09 in   Overcast
2:35 AM 42.8 °F 41.1 °F 42.8 °F 100% 29.93 in 9.0 mi East 3.5 mph - 0.13 in   Overcast
2:55 AM 42.8 °F - 42.8 °F 100% 29.94 in 10.0 mi Calm Calm - 0.14 in   Overcast
3:15 AM 42.8 °F 41.1 °F 42.8 °F 100% 29.94 in 8.0 mi East 3.5 mph - 0.04 in   Mostly Cloudy
3:35 AM 42.8 °F 41.1 °F 42.8 °F 100% 29.93 in 3.0 mi SE 3.5 mph - 0.05 in   Overcast
3:55 AM 42.8 °F - 42.8 °F 100% 29.93 in 4.0 mi Calm Calm - 0.07 in   Overcast
4:15 AM 42.8 °F 41.1 °F 42.8 °F 100% 29.93 in 9.0 mi ESE 3.5 mph - N/A   Overcast
4:35 AM 42.8 °F - 42.8 °F 100% 29.93 in 3.0 mi Calm Calm - 0.01 in   Overcast
4:55 AM 42.8 °F - 42.8 °F 100% 29.93 in 5.0 mi Calm Calm - 0.02 in   Overcast
5:15 AM 42.8 °F - 42.8 °F 100% 29.93 in 5.0 mi Calm Calm - 0.01 in   Overcast
5:35 AM 42.8 °F - 42.8 °F 100% 29.92 in 5.0 mi Calm Calm - 0.03 in   Overcast
5:55 AM 42.8 °F - 42.8 °F 100% 29.93 in 10.0 mi Calm Calm - 0.03 in   Overcast
6:35 AM 42.8 °F 41.1 °F 42.8 °F 100% 29.95 in 0.2 mi North 3.5 mph - N/A   Overcast
6:55 AM 42.8 °F 41.1 °F 41.0 °F 93% 29.96 in 5.0 mi North 3.5 mph - N/A   Overcast
7:15 AM 44.6 °F - 42.8 °F 93% 29.94 in 0.2 mi Calm Calm - N/A   Overcast
7:35 AM 44.6 °F - 42.8 °F 93% 29.95 in 0.2 mi Calm Calm - N/A   Overcast
7:55 AM 44.6 °F - 42.8 °F 93% 29.96 in 0.2 mi Calm Calm - N/A   Overcast
8:15 AM 44.6 °F 43.1 °F 42.8 °F 93% 29.97 in 0.5 mi South 3.5 mph - N/A   Overcast
8:55 AM 44.6 °F - 44.6 °F 100% 29.97 in 5.0 mi Calm Calm - N/A   Overcast
9:15 AM 44.6 °F - 42.8 °F 93% 29.97 in 5.0 mi Calm Calm - N/A   Overcast
9:35 AM 44.6 °F 43.1 °F 44.6 °F 100% 29.97 in 3.0 mi North 3.5 mph - N/A   Overcast
9:55 AM 44.6 °F 43.1 °F 44.6 °F 100% 29.98 in 2.0 mi NNW 3.5 mph - N/A   Overcast
10:15 AM 44.6 °F 41.4 °F 44.6 °F 100% 29.98 in 1.5 mi NW 5.8 mph - N/A   Overcast
10:35 AM 46.4 °F 43.5 °F 44.6 °F 93% 29.98 in 9.0 mi NNW 5.8 mph - N/A   Overcast
10:55 AM 46.4 °F 44.3 °F 44.6 °F 93% 29.98 in 10.0 mi NNW 4.6 mph - N/A   Overcast
11:15 AM 46.4 °F 42.9 °F 44.6 °F 93% 29.98 in 10.0 mi NNW 6.9 mph - N/A   Overcast
11:35 AM 46.4 °F 42.9 °F 44.6 °F 93% 29.98 in 10.0 mi NNW 6.9 mph - N/A   Overcast
12:15 PM 48.2 °F - 42.8 °F 82% 29.98 in 10.0 mi NNW 4.6 mph - N/A   Overcast
12:35 PM 48.2 °F - 44.6 °F 87% 29.96 in 10.0 mi NNE 8.1 mph - N/A   Overcast
1:15 PM 48.2 °F - 42.8 °F 82% 29.97 in 10.0 mi North 4.6 mph - N/A   Mostly Cloudy
1:35 PM 48.2 °F - 42.8 °F 82% 30.00 in 10.0 mi NNW 6.9 mph - N/A   Overcast
1:55 PM 48.2 °F - 42.8 °F 82% 29.99 in 10.0 mi NNW 6.9 mph - N/A   Overcast
2:15 PM 48.2 °F - 42.8 °F 82% 30.01 in 10.0 mi NW 4.6 mph - N/A   Overcast
2:55 PM 48.2 °F - 44.6 °F 87% 29.91 in 10.0 mi North 4.6 mph - 0.01 in   Overcast
3:15 PM 48.2 °F - 44.6 °F 87% 29.93 in 10.0 mi WNW 5.8 mph - N/A   Overcast
3:35 PM 48.2 °F - 44.6 °F 87% 29.93 in 10.0 mi Calm Calm - N/A   Overcast
3:55 PM 48.2 °F - 42.8 °F 82% 29.92 in 10.0 mi North 4.6 mph - N/A   Overcast
4:15 PM 48.2 °F - 44.6 °F 87% 29.92 in 10.0 mi NNE 3.5 mph - N/A   Overcast
4:35 PM 50.0 °F - 44.6 °F 82% 29.91 in 10.0 mi North 4.6 mph - N/A   Overcast
4:55 PM 50.0 °F - 42.8 °F 76% 29.91 in 10.0 mi NNE 4.6 mph - N/A   Overcast
5:15 PM 48.2 °F - 42.8 °F 82% 29.91 in 10.0 mi North 4.6 mph - N/A   Overcast
5:35 PM 48.2 °F - 42.8 °F 82% 29.91 in 10.0 mi NW 4.6 mph - N/A   Overcast
5:55 PM 48.2 °F - 42.8 °F 82% 29.92 in 10.0 mi NNW 9.2 mph - N/A   Overcast
6:15 PM 46.4 °F 42.9 °F 41.0 °F 81% 29.88 in 10.0 mi North 6.9 mph - N/A   Overcast
6:35 PM 46.4 °F 44.3 °F 42.8 °F 87% 29.90 in 10.0 mi NW 4.6 mph - N/A   Overcast
7:35 PM 44.6 °F 43.1 °F 42.8 °F 93% 29.89 in 4.0 mi NW 3.5 mph - N/A   Mostly Cloudy
7:55 PM 44.6 °F 42.2 °F 42.8 °F 93% 29.89 in 5.0 mi WNW 4.6 mph - N/A   Overcast
8:15 PM 42.8 °F - 42.8 °F 100% 29.91 in 4.0 mi Calm Calm - N/A   Overcast
8:35 PM 42.8 °F 41.1 °F 42.8 °F 100% 29.92 in 4.0 mi NE 3.5 mph - N/A   Overcast
8:55 PM 42.8 °F 39.3 °F 42.8 °F 100% 29.91 in 3.0 mi North 5.8 mph - 0.02 in   Overcast
9:15 PM 42.8 °F 40.1 °F 42.8 °F 100% 29.91 in 5.0 mi NNW 4.6 mph - N/A   Overcast
9:35 PM 42.8 °F 38.6 °F 41.0 °F 93% 29.92 in 4.0 mi North 6.9 mph - N/A   Overcast
10:35 PM 42.8 °F 40.1 °F 41.0 °F 93% 29.91 in 2.5 mi NNW 4.6 mph - N/A   Overcast
10:55 PM 42.8 °F 41.1 °F 39.2 °F 87% 29.92 in 3.0 mi NNW 3.5 mph - N/A   Overcast
11:15 PM 41.0 °F - 39.2 °F 93% 29.92 in 2.5 mi Calm Calm - N/A   Overcast
11:35 PM 41.0 °F - 39.2 °F 93% 29.91 in 2.5 mi Calm Calm - N/A   Overcast
11:55 PM 41.0 °F - 39.2 °F 93% 29.92 in 2.0 mi Calm Calm - 0.01 in   Overcast